Uvalde, Texas, United States (78801)
Lat: 29.21N, Lon: 99.79W
Wx Zone: TXZ203
Local Info
Past Weather Observations for Today

NOTE: This archive is for the closest National Weather Service station to Uvalde. Information may differ from the station used for current weather conditions.

Click here for Long-term Archive

Time Weather Temperature Dewpoint Humidity Pressure Winds Precip Visibility
22:55
Clear
Fog And Mist
72°F / 22°C 70°F / 21°C 94% 29.65 in
(1004 mb)
ENE 5.8 mph
(ENE 9 kph)
- 5SM
22:35
Clear
Fog And Mist
72°F / 22°C 70°F / 21°C 94% 29.65 in
(1004 mb)
NE 5.8 mph
(NE 9 kph)
- 5SM
22:15
Clear
Fog And Mist
70°F / 21°C 68°F / 20°C 94% 29.65 in
(1004 mb)
NE 6.9 mph
(NE 11 kph)
- 4SM
21:55
Clear
Fog And Mist
72°F / 22°C 70°F / 21°C 94% 29.62 in
(1003 mb)
Calm - 4SM
21:35
Clear
Fog And Mist
72°F / 22°C 70°F / 21°C 94% 29.62 in
(1003 mb)
NE 4.6 mph
(NE 7 kph)
- 5SM
21:15
Clear
Fog And Mist
73°F / 23°C 70°F / 21°C 89% 29.62 in
(1003 mb)
Calm - 5SM
20:55
Clear
Fog And Mist
73°F / 23°C 70°F / 21°C 89% 29.62 in
(1003 mb)
Calm - 5SM
20:35
Clear
Fog And Mist
72°F / 22°C 70°F / 21°C 94% 29.62 in
(1003 mb)
Calm - 5SM
20:15
Clear
75°F / 24°C 70°F / 21°C 83% 29.59 in
(1002 mb)
Calm - 7SM
19:55
Clear
75°F / 24°C 70°F / 21°C 83% 29.59 in
(1002 mb)
NE 4.6 mph
(NE 7 kph)
- 7SM
19:35
Clear
77°F / 25°C 70°F / 21°C 79% 29.59 in
(1002 mb)
Calm - 7SM
19:15
Clear
81°F / 27°C 70°F / 21°C 70% 29.59 in
(1002 mb)
Calm - 7SM
18:55
Clear
82°F / 28°C 70°F / 21°C 66% 29.59 in
(1002 mb)
Calm - 7SM
18:35
Clear
84°F / 29°C 70°F / 21°C 62% 29.59 in
(1002 mb)
Calm - 7SM
18:15
Clear
86°F / 30°C 70°F / 21°C 59% 29.59 in
(1002 mb)
SE 3.5 mph
(SE 6 kph)
- 7SM
17:55
Clear
86°F / 30°C 68°F / 20°C 55% 29.59 in
(1002 mb)
Calm - 7SM
17:35
Clear
86°F / 30°C 70°F / 21°C 59% 29.59 in
(1002 mb)
Calm - 7SM
17:15
Clear
86°F / 30°C 70°F / 21°C 59% 29.59 in
(1002 mb)
Calm - 7SM
16:55
Clear
86°F / 30°C 70°F / 21°C 59% 29.59 in
(1002 mb)
NE 3.5 mph
(NE 6 kph)
- 7SM
16:35
Clear
84°F / 29°C 70°F / 21°C 62% 29.59 in
(1002 mb)
Calm - 7SM
16:15
Clear
82°F / 28°C 70°F / 21°C 66% 29.59 in
(1002 mb)
Calm - 7SM
15:55
Clear
82°F / 28°C 72°F / 22°C 70% 29.59 in
(1002 mb)
Calm - 7SM
15:35
Clear
82°F / 28°C 70°F / 21°C 66% 29.59 in
(1002 mb)
Calm - 7SM
15:15
Clear
84°F / 29°C 70°F / 21°C 62% 29.59 in
(1002 mb)
Calm - 7SM
14:55
Clear
84°F / 29°C 70°F / 21°C 62% 29.62 in
(1003 mb)
Calm - 7SM
14:35
Partly Cloudy
84°F / 29°C 70°F / 21°C 62% 29.62 in
(1003 mb)
SW 5.8 mph
(SW 9 kph)
- 7SM
14:15
Partly Cloudy
86°F / 30°C 70°F / 21°C 59% 29.62 in
(1003 mb)
SW 5.8 mph
(SW 9 kph)
- 7SM
13:55
Partly Cloudy
86°F / 30°C 70°F / 21°C 59% 29.62 in
(1003 mb)
SW 6.9 mph
(SW 11 kph)
- 7SM
13:35
Partly Cloudy
86°F / 30°C 70°F / 21°C 59% 29.65 in
(1004 mb)
S 6.9 mph
(S 11 kph)
- 10SM
13:15
Mostly Cloudy
84°F / 29°C 70°F / 21°C 62% 29.65 in
(1004 mb)
S 9.2 mph
(S 15 kph)
- 7SM
12:55
Mostly Cloudy
84°F / 29°C 70°F / 21°C 62% 29.65 in
(1004 mb)
S 10.4 mph
(S 17 kph)
- 7SM
12:35
Mostly Cloudy
84°F / 29°C 70°F / 21°C 62% 29.65 in
(1004 mb)
S 9.2 mph
(S 15 kph)
- 7SM
12:15
Partly Cloudy
84°F / 29°C 70°F / 21°C 62% 29.68 in
(1005 mb)
SSE 9.2 mph
(SSE 15 kph)
- 7SM
11:55
Mostly Cloudy
84°F / 29°C 70°F / 21°C 62% 29.68 in
(1005 mb)
S 9.2 mph
(S 15 kph)
- 7SM
11:35
Overcast
81°F / 27°C 70°F / 21°C 70% 29.68 in
(1005 mb)
S 9.2 mph
(S 15 kph)
- 7SM
11:15
Mostly Cloudy
81°F / 27°C 70°F / 21°C 70% 29.68 in
(1005 mb)
SSE 13.8 mph
(SSE 22 kph)
- 7SM
10:55
Mostly Cloudy
82°F / 28°C 70°F / 21°C 66% 29.68 in
(1005 mb)
S 15 mph
(S 24 kph)
- 7SM
10:35
Overcast
81°F / 27°C 70°F / 21°C 70% 29.71 in
(1006 mb)
SSE 16.1 mph
(SSE 26 kph)
- 7SM
10:15
Overcast
79°F / 26°C 70°F / 21°C 74% 29.71 in
(1006 mb)
SSE 13.8 mph
(SSE 22 kph)
- 7SM
09:50
Overcast
Hazy
77°F / 25°C 72°F / 22°C 83% 29.71 in
(1006 mb)
SSE 11.5 mph
(SSE 19 kph)
- 5SM
09:35
Overcast
Fog And Mist
75°F / 24°C 72°F / 22°C 89% 29.71 in
(1006 mb)
SSE 10.4 mph
(SSE 17 kph)
- 5SM
09:15
Overcast
Fog And Mist
75°F / 24°C 72°F / 22°C 89% 29.71 in
(1006 mb)
SE 9.2 mph
(SE 15 kph)
- 4SM
08:55
Overcast
Fog And Mist
73°F / 23°C 73°F / 23°C 100% 29.71 in
(1006 mb)
SE 8.1 mph
(SE 13 kph)
- 2 1/2SM
08:35
Overcast
Fog And Mist
73°F / 23°C 72°F / 22°C 94% 29.71 in
(1006 mb)
SE 4.6 mph
(SE 7 kph)
- 2 1/2SM
08:15
Overcast
Fog And Mist
73°F / 23°C 72°F / 22°C 94% 29.71 in
(1006 mb)
SE 4.6 mph
(SE 7 kph)
- 2 1/2SM
07:55
Overcast
Fog And Mist
73°F / 23°C 72°F / 22°C 94% 29.71 in
(1006 mb)
ESE 3.5 mph
(ESE 6 kph)
- 2 1/2SM
07:35
Overcast
Fog And Mist
73°F / 23°C 72°F / 22°C 94% 29.71 in
(1006 mb)
ESE 4.6 mph
(ESE 7 kph)
- 2 1/2SM
07:15
Overcast
Fog And Mist
73°F / 23°C 72°F / 22°C 94% 29.71 in
(1006 mb)
E 5.8 mph
(E 9 kph)
- 2SM
06:55
Overcast
Fog And Mist
73°F / 23°C 72°F / 22°C 94% 29.71 in
(1006 mb)
E 4.6 mph
(E 7 kph)
- 1 3/4SM
06:35
Overcast
Fog And Mist
73°F / 23°C 72°F / 22°C 94% 29.71 in
(1006 mb)
E 6.9 mph
(E 11 kph)
- 2 1/2SM
06:15
Overcast
Fog And Mist
73°F / 23°C 72°F / 22°C 94% 29.71 in
(1006 mb)
E 4.6 mph
(E 7 kph)
- 3SM
05:55
Overcast
Fog And Mist
73°F / 23°C 72°F / 22°C 94% 29.71 in
(1006 mb)
E 4.6 mph
(E 7 kph)
- 3SM
05:35
Overcast
Fog And Mist
72°F / 22°C 72°F / 22°C 100% 29.71 in
(1006 mb)
E 4.6 mph
(E 7 kph)
- 3SM
05:15
Overcast
Fog And Mist
72°F / 22°C 72°F / 22°C 100% 29.71 in
(1006 mb)
SSE 4.6 mph
(SSE 7 kph)
- 3SM
04:55
Overcast
Drizzle
72°F / 22°C 72°F / 22°C 100% 29.71 in
(1006 mb)
S 3.5 mph
(S 6 kph)
- 2 1/2SM
04:35
Overcast
Rain
72°F / 22°C 72°F / 22°C 100% 29.71 in
(1006 mb)
ESE 4.6 mph
(ESE 7 kph)
- 2SM
04:15
Overcast
Drizzle
72°F / 22°C 72°F / 22°C 100% 29.71 in
(1006 mb)
E 3.5 mph
(E 6 kph)
- 2 1/2SM
03:55
Overcast
Drizzle
73°F / 23°C 72°F / 22°C 94% 29.71 in
(1006 mb)
E 5.8 mph
(E 9 kph)
- 3SM
03:35
Overcast
Fog And Mist
73°F / 23°C 72°F / 22°C 94% 29.71 in
(1006 mb)
ESE 8.1 mph
(ESE 13 kph)
- 5SM
03:15
Overcast
Fog And Mist
73°F / 23°C 72°F / 22°C 94% 29.71 in
(1006 mb)
ESE 6.9 mph
(ESE 11 kph)
- 5SM
02:55
Overcast
Fog And Mist
73°F / 23°C 72°F / 22°C 94% 29.71 in
(1006 mb)
ESE 9.2 mph
(ESE 15 kph)
- 5SM
02:35
Overcast
Fog And Mist
73°F / 23°C 72°F / 22°C 94% 29.71 in
(1006 mb)
SE 10.4 mph
(SE 17 kph)
- 5SM
02:15
Overcast
Fog And Mist
73°F / 23°C 72°F / 22°C 94% 29.71 in
(1006 mb)
ESE 11.5 mph
(ESE 19 kph)
- 5SM
01:55
Overcast
Fog And Mist
73°F / 23°C 72°F / 22°C 94% 29.71 in
(1006 mb)
E 8.1 mph
(E 13 kph)
- 4SM
01:35
Overcast
Fog And Mist
73°F / 23°C 72°F / 22°C 94% 29.71 in
(1006 mb)
E 6.9 mph
(E 11 kph)
- 4SM
01:15
Overcast
Fog And Mist
75°F / 24°C 72°F / 22°C 89% 29.71 in
(1006 mb)
E 6.9 mph
(E 11 kph)
- 5SM
00:55
Overcast
Fog And Mist
75°F / 24°C 72°F / 22°C 89% 29.71 in
(1006 mb)
ESE 8.1 mph
(ESE 13 kph)
- 5SM
00:35
Overcast
Fog And Mist
75°F / 24°C 72°F / 22°C 89% 29.74 in
(1007 mb)
E 8.1 mph
(E 13 kph)
- 5SM
00:15
Overcast
Fog And Mist
75°F / 24°C 72°F / 22°C 89% 29.71 in
(1006 mb)
E 8.1 mph
(E 13 kph)
- 5SM
Time Weather Temperature Dewpoint Humidity Pressure Winds Precip Visibility


Weather for websites

WeatherForYou.com, LLC is not responsible for any damages or problems caused by this service. Current weather conditions are obtained from the closest station including government and personal stations which may have varying degrees of accuracy. Weather forecasts are derived from the NOAA NDFD. Like all things, this site belongs to Jesus Christ... He just trusts us to maintain it. If you have any questions or comments email webmaster@weatherforyou.com

Copyright © 2016, WeatherForYou.com LLC. All rights reserved.